Regional Weather Roundup
Issued by NWS

Home | Current Version | Previous Version | Graphics & Text | Print | Product List | Glossary On
Versions: 1 2 3 4 5 6 7 8 9 10 11 12 13 14 15 16 17 18 19 20 21 22 23 24 25 26 27 28 29 30 31 32 33 34 35 36 37 38 39 40 41 42 43 44 45 46 47 48 49 50
463
ASUS43 KBIS 032010
RWRND

NORTH DAKOTA REGIONAL WEATHER ROUNDUP
NATIONAL WEATHER SERVICE BISMARCK ND
200 PM CST SAT DEC 03 2016

NOTE: "FAIR" INDICATES FEW OR NO CLOUDS BELOW 12,000 FEET WITH NO
SIGNIFICANT WEATHER AND/OR OBSTRUCTIONS TO VISIBILITY.


NDZ001>003-009>011-017-032100-
NORTHWEST NORTH DAKOTA

CITY           SKY/WX    TMP DP  RH WIND       PRES   REMARKS
WILLISTON      CLOUDY    32  26  78 S8        29.76F
MINOT          MOSUNNY   29  24  82 S9        29.81F
MINOT AFB      SUNNY     27  22  84 S14       29.80F WCI  15
$$

NDZ018>021-031>035-040>046-032100-
SOUTHWEST NORTH DAKOTA

CITY           SKY/WX    TMP DP  RH WIND       PRES   REMARKS
BISMARCK       PTSUNNY   30  25  81 SW5       29.91S
DICKINSON      CLOUDY    29  23  78 W10       29.78F WCI  20
GARRISON         N/A     27  22  81 S15       29.84F WCI  15
HETTINGER ARPT CLOUDY    28  22  78 CALM      29.84F
$$

NDZ004>008-012>016-024-026-027-054-032100-
NORTHEAST NORTH DAKOTA

CITY           SKY/WX    TMP DP  RH WIND       PRES   REMARKS
GRAND FORKS    CLOUDY    30  22  72 S15G23    30.07F WCI  19
GRND FRKS AFB  CLOUDY    29  24  80 S18G25    30.06S WCI  17
DEVILS LAKE    CLOUDY    31  27  85 S23G29    29.93F WCI  18
$$

NDZ022-023-025-028>030-036>039-047>053-032100-
SOUTHEAST NORTH DAKOTA

CITY           SKY/WX    TMP DP  RH WIND       PRES   REMARKS
FARGO          PTSUNNY   32  25  75 SE17G24   30.07F
JAMESTOWN      MOSUNNY   32  28  85 SE15      29.96F
$$





USA.gov is the U.S. government's official web portal to all federal, state and local government web resources and services.